Location: Unspecified
(0.0000°N, 0.0000°E)
Time: 20:04:15
(UTC+00:00)

ISS - Pass Details

Date: 16 January 2018
Orbit: 402 x 407 km, 51.6° (Epoch: 17 January)

Event Time Altitude Azimuth Distance (km) Brightness Sun altitude
Rises 19:57:43 0° 224° (SW) 2,308 1.1 -25.1°
Reaches altitude 10° 19:59:50 10° 229° (SW) 1,447 -0.1 -25.6°
Enters shadow 20:01:33 27° 244° (WSW) 808 -1.7 -26.0°
